• Processing (Info)

  • MPEC 2014-A18 : 2014 AE5

    The following Minor Planet Electronic Circular may be linked-to from your own Web pages, but must not otherwise be redistributed electronically.

    A form allowing access to any MPEC is at the bottom of this page.


    Read MPEC 2014-A17 Read MPEC 2014-A19


    M.P.E.C. 2014-A18                                Issued 2014 Jan. 4, 00:30 UT
    
         The Minor Planet Electronic Circulars contain information on unusual
             minor planets and routine data on comets.  They are published
       on behalf of Commission 20 of the International Astronomical Union by the
              Minor Planet Center, Smithsonian Astrophysical Observatory,
                              Cambridge, MA 02138, U.S.A.
    
                 Prepared using the Tamkin Foundation Computer Network
    
                                  MPC@CFA.HARVARD.EDU
                URL http://www.minorplanetcenter.net/    ISSN 1523-6714
    
                                       2014 AE5
    
    Observations:
         K14A05E* C2014 01 02.22499 04 04 49.75 +19 48 32.0          19.1 VqEA018G96
         K14A05E  C2014 01 02.23101 04 04 56.83 +19 49 28.3          19.5 VqEA018G96
         K14A05E  C2014 01 02.23702 04 05 03.92 +19 50 24.3          19.4 VqEA018G96
         K14A05E  C2014 01 02.24304 04 05 11.08 +19 51 20.7          19.3 VqEA018G96
         K14A05E  C2014 01 02.27940 04 05 54.19 +19 56 56.3          19.8 VqEA018G96
         K14A05E  C2014 01 02.27974 04 05 54.65 +19 56 59.4          19.2 VqEA018G96
         K14A05E  C2014 01 02.35654 04 07 27.56 +20 08 35.1          19.1 VqEA018G96
         K14A05E  C2014 01 02.35858 04 07 30.05 +20 08 53.2          19.4 VqEA018G96
         K14A05E  C2014 01 02.36063 04 07 32.59 +20 09 11.9          19.0 VqEA018G96
         K14A05E  C2014 01 02.36268 04 07 35.14 +20 09 30.3          19.6 VqEA018G96
         K14A05E  C2014 01 03.01653 04 21 46.29 +21 47 51.0          19.0 VoEA018033
         K14A05E  C2014 01 03.01973 04 21 50.26 +21 48 17.8          19.0 VoEA018033
         K14A05E  C2014 01 03.02775 04 22 00.55 +21 49 27.0          19.0 VoEA018033
         K14A05E  C2014 01 03.03097 04 22 04.60 +21 49 54.4          19.0 VoEA018033
         K14A05E  C2014 01 03.04253 04 22 19.07 +21 51 31.8          19.0 VoEA018033
         K14A05E  C2014 01 03.04574 04 22 23.21 +21 51 59.2          19.1 VoEA018033
         K14A05E  C2014 01 03.05216 04 22 31.42 +21 52 53.9          19.1 VoEA018033
         K14A05E  C2014 01 03.05537 04 22 35.59 +21 53 21.5          19.1 VoEA018033
         K14A05E  C2014 01 03.11765 04 24 17.30 +22 04 21.4          19.2 VqEA018G96
         K14A05E  C2014 01 03.11816 04 24 17.93 +22 04 26.0          19.7 VqEA018G96
         K14A05E  C2014 01 03.11867 04 24 18.52 +22 04 30.5          19.6 VqEA018G96
         K14A05E  C2014 01 03.11918 04 24 19.17 +22 04 34.9          19.0 VqEA018G96
         K14A05E KC2014 01 03.13409 04 24 36.14 +22 06 52.7          19.6 RqEA018448
         K14A05E KC2014 01 03.14628 04 24 50.81 +22 08 41.7          19.4 RqEA018448
         K14A05E KC2014 01 03.14972504 24 49.65 +22 08 43.1          19.7 VuEA018H21
         K14A05E KC2014 01 03.15240204 24 52.88 +22 09 06.5          19.7 VuEA018H21
         K14A05E KC2014 01 03.15508004 24 56.12 +22 09 29.9          19.6 VuEA018H21
         K14A05E KC2014 01 03.15786004 24 59.48 +22 09 54.2          19.6 VuEA018H21
         K14A05E KC2014 01 03.15828 04 25 05.39 +22 10 29.2          19.9 RqEA018448
         K14A05E KC2014 01 03.16060804 25 02.81 +22 10 18.0          19.5 VuEA018H21
         K14A05E KC2014 01 03.16328504 25 06.04 +22 10 40.9          19.7 VuEA018H21
         K14A05E KC2014 01 03.16587504 25 09.20 +22 11 03.6          19.9 VuEA018H21
         K14A05E KC2014 01 03.16846404 25 12.32 +22 11 25.7          19.7 VuEA018H21
         K14A05E KC2014 01 03.81075 04 39 22.50 +23 40 41.2                qEA018J95
         K14A05E KC2014 01 03.81665 04 39 29.90 +23 41 30.9          19.6 RqEA018J95
         K14A05E KC2014 01 03.82514 04 39 40.45 +23 42 41.7          19.5 RqEA018J95
    
    Observer details:
    033 Karl Schwarzschild Observatory, Tautenburg.  Observer B. Stecklum.  1.34-m
        f/4 Schmidt + CCD.
    448 Desert Moon Observatory.  Observer B. L. Stevens.  0.3-m
        Schmidt-Cassegrain + CCD.
    G96 Mt. Lemmon Survey.  Observer E. J. Christensen.  Measurers A. Boattini,
        E. J. Christensen, A. R. Gibbs, A. D. Grauer, R. E. Hill, J. A. Johnson,
        R. A. Kowalski, S. M. Larson, F. C. Shelly.  1.5-m reflector + CCD.
    H21 Astronomical Research Observatory, Westfield.  Observer R. Holmes.
        Measurers T. Linder, S. Foglia, L. Buzzi, T. Vorobjov.  0.61-m f/4.5
        astrograph + CCD.
    J95 Great Shefford.  Observer P. Birtwhistle.  0.40-m f/6.0 Schmidt-Cassegrain
        + CCD.
    
    Orbital elements:
    2014 AE5                                                 Earth MOID = 0.0161 AU
    Epoch 2013 Nov. 4.0 TT = JDT 2456600.5                  MPC
    M 337.37761              (2000.0)            P               Q
    n   0.52002194     Peri.  341.25254     +0.13134063     -0.99036259
    a   1.5315162      Node   101.18209     +0.91516570     +0.10408727
    e   0.3500070      Incl.    2.56772     +0.38107922     +0.09136615
    P   1.90           H   25.5           G   0.15           U   6
    Residuals in seconds of arc
    140102 G96  0.5+  0.1+    140103 033  1.3+  0.5+    140103 H21  0.0   0.1+
    140102 G96  0.2+  0.1+    140103 033  1.0+  0.5+    140103 H21  0.1-  0.1+
    140102 G96  0.1+  0.1-    140103 033  1.4-  0.3-    140103 H21  0.1-  0.2+
    140102 G96  0.7+  0.2+    140103 033  0.5-  0.1-    140103 H21  0.1-  0.3+
    140102 G96  0.3-  0.2-    140103 033  0.1+  0.2+    140103 448  0.8+  0.5+
    140102 G96  0.5+  0.2-    140103 033  1.2+  0.7+    140103 H21  0.1-  0.2+
    140102 G96  0.0   0.2-    140103 G96  0.1+  0.0     140103 H21  0.2-  0.2-
    140102 G96  0.3-  0.4-    140103 G96  0.3+  0.0     140103 H21  0.1+  0.1+
    140102 G96  0.1-  0.0     140103 G96  0.2-  0.1-    140103 H21  0.1-  0.3-
    140102 G96  0.3+  0.1+    140103 G96  0.3+  0.4-    140103 J95  0.3-  0.3-
    140103 033  0.4-  0.2+    140103 448  0.3-  0.1-    140103 J95  0.3+  0.1+
    140103 033  1.2-  0.3-    140103 448  0.9-  0.2-    140103 J95  0.0   0.0
    
    Ephemeris:
    2014 AE5                 a,e,i = 1.53, 0.35, 3                   q = 0.9955
    Date    TT    R. A. (2000) Decl.     Delta      r     Elong.  Phase     V
    2013 12 05    00 00 21.0 -17 52 57   0.08680 1.0036    99.5    75.6    22.8
    ...
    2013 12 20    01 02 01.2 -08 36 49   0.05009 0.9958   102.4    74.8    21.6
    ...
    2013 12 28    02 27 35.0 +05 35 37   0.03481 1.0012   119.8    58.4    20.3
    ...
    2014 01 03    04 21 34.0 +21 47 58   0.03179 1.0095   144.9    34.0    19.4
    2014 01 04    04 43 22.0 +24 08 12   0.03235 1.0112   149.2    29.9    19.4
    2014 01 05    05 05 04.1 +26 11 14   0.03321 1.0131   153.1    26.0    19.3
    ...
    2014 01 11    06 55 34.9 +32 25 33   0.04354 1.0259   167.2    12.3    19.5
    ...
    2014 01 19    08 15 13.0 +32 38 09   0.06547 1.0479   167.5    11.7    20.4
    ...
    2014 02 03    09 07 24.8 +29 58 55   0.1189  1.1017   166.7    11.9    21.8
    
    A. U. Tomatic                (C) Copyright 2014 MPC           M.P.E.C. 2014-A18
    

    Read MPEC 2014-A17 Read MPEC 2014-A19


    MPEC number:

    Enter an MPEC number in one of the following forms:

    • 1997-B01 (the full form)
    • J97B01 (the packed version of the full form)
    • B01 (the abbreviated form)